| time (UTC) | temp C | wind direction | speed KPH | gust KPH | rain 1hr cm | rain 24hr cm | rain mn cm | humidity % | barometer mb |
| 20260505025556 | 15 | 129 | 0.0 | 1.6 | 0.00 | 0.00 | 0.00 | 64 | 983.3 |
| 20260505025052 | 15 | 66 | 0.0 | 0.0 | 0.00 | 0.00 | 0.00 | 64 | 983.3 |
| 20260505024546 | 15 | 66 | 0.0 | 0.0 | 0.00 | 0.00 | 0.00 | 63 | 983.1 |
| 20260505024046 | 15 | 129 | 0.0 | 1.6 | 0.00 | 0.00 | 0.00 | 62 | 983.3 |
| 20260505023536 | 15 | 315 | 0.0 | 0.0 | 0.00 | 0.00 | 0.00 | 62 | 983.2 |
| 20260505023031 | 15 | 125 | 3.2 | 3.2 | 0.00 | 0.00 | 0.00 | 60 | 983.1 |
| 20260505022525 | 16 | 130 | 0.0 | 1.6 | 0.00 | 0.00 | 0.00 | 61 | 983.1 |
| 20260505022026 | 16 | 309 | 0.0 | 1.6 | 0.00 | 0.00 | 0.00 | 60 | 982.9 |
| 20260505021516 | 16 | 202 | 0.0 | 1.6 | 0.00 | 0.00 | 0.00 | 59 | 983.2 |
| 20260505021016 | 16 | 135 | 1.6 | 3.2 | 0.00 | 0.00 | 0.00 | 59 | 983.2 |
| 20260505020506 | 16 | 126 | 1.6 | 1.6 | 0.00 | 0.00 | 0.00 | 60 | 983.1 |
| 20260505020001 | 16 | 135 | 0.0 | 1.6 | 0.00 | 0.00 | 0.00 | 61 | 983.1 |
| 20260505015556 | 16 | 142 | 0.0 | 0.0 | 0.00 | 0.00 | 0.00 | 59 | 982.8 |
| 20260505015051 | 16 | 129 | 0.0 | 1.6 | 0.00 | 0.00 | 0.00 | 60 | 982.9 |
| 20260505014546 | 16 | 180 | 0.0 | 3.2 | 0.00 | 0.00 | 0.00 | 58 | 982.6 |
| 20260505014042 | 16 | 129 | 0.0 | 0.0 | 0.00 | 0.00 | 0.00 | 59 | 982.8 |
| 20260505013537 | 16 | 150 | 0.0 | 1.6 | 0.00 | 0.00 | 0.00 | 57 | 982.9 |
| 20260505013032 | 17 | 147 | 0.0 | 1.6 | 0.00 | 0.00 | 0.00 | 56 | 982.6 |
| 20260505012527 | 17 | 139 | 0.0 | 0.0 | 0.00 | 0.00 | 0.00 | 54 | 982.9 |
| 20260505012021 | 17 | 125 | 0.0 | 0.0 | 0.00 | 0.00 | 0.00 | 53 | 982.7 |
| 20260505011517 | 17 | 135 | 0.0 | 0.0 | 0.00 | 0.00 | 0.00 | 54 | 982.7 |
| 20260505011012 | 17 | 129 | 0.0 | 0.0 | 0.00 | 0.00 | 0.00 | 53 | 982.7 |
| 20260505010512 | 17 | 129 | 0.0 | 1.6 | 0.00 | 0.00 | 0.00 | 53 | 982.5 |
| 20260505010006 | 18 | 168 | 0.0 | 1.6 | 0.00 | 0.00 | 0.00 | 52 | 982.5 |
| 20260505005558 | 18 | 135 | 0.0 | 1.6 | 0.00 | 0.00 | 0.00 | 51 | 982.4 |
| 20260505005052 | 18 | 136 | 1.6 | 1.6 | 0.00 | 0.00 | 0.00 | 51 | 982.4 |
| 20260505004548 | 18 | 129 | 0.0 | 1.6 | 0.00 | 0.00 | 0.00 | 49 | 982.4 |
| 20260505004042 | 19 | 164 | 0.0 | 3.2 | 0.00 | 0.00 | 0.00 | 49 | 982.3 |
| 20260505003538 | 19 | 147 | 0.0 | 3.2 | 0.00 | 0.00 | 0.00 | 47 | 982.3 |
| 20260505003033 | 20 | 143 | 0.0 | 1.6 | 0.00 | 0.00 | 0.00 | 46 | 982.3 |
| 20260505002528 | 20 | 173 | 0.0 | 0.0 | 0.00 | 0.00 | 0.00 | 46 | 982.1 |
| 20260505002023 | 20 | 195 | 0.0 | 1.6 | 0.00 | 0.00 | 0.00 | 45 | 982.1 |
| 20260505001518 | 21 | 173 | 0.0 | 1.6 | 0.00 | 0.00 | 0.00 | 43 | 982.1 |
| 20260505001013 | 21 | 202 | 0.0 | 1.6 | 0.00 | 0.00 | 0.00 | 44 | 982.3 |
| 20260505000513 | 21 | 168 | 0.0 | 1.6 | 0.00 | 0.00 | 0.00 | 41 | 982.1 |
| 20260505000003 | 22 | 199 | 1.6 | 1.6 | 0.00 | 0.00 | 0.00 | 41 | 982.0 |
| 20260504235559 | 22 | 200 | 0.0 | 1.6 | 0.00 | 0.00 | 0.00 | 40 | 981.9 |
| 20260504235054 | 22 | 180 | 0.0 | 1.6 | 0.00 | 0.00 | 0.00 | 38 | 981.9 |
| 20260504234549 | 22 | 212 | 0.0 | 3.2 | 0.00 | 0.00 | 0.00 | 37 | 982.1 |
| 20260504234044 | 22 | 199 | 1.6 | 3.2 | 0.00 | 0.00 | 0.00 | 39 | 982.0 |
| 20260504233539 | 23 | 196 | 3.2 | 3.2 | 0.00 | 0.00 | 0.00 | 39 | 981.9 |
| 20260504233034 | 23 | 214 | 0.0 | 3.2 | 0.00 | 0.00 | 0.00 | 38 | 982.0 |
| 20260504232529 | 23 | 224 | 0.0 | 3.2 | 0.00 | 0.00 | 0.00 | 36 | 982.2 |
| 20260504232029 | 23 | 300 | 3.2 | 3.2 | 0.00 | 0.00 | 0.00 | 35 | 982.1 |
| 20260504231518 | 23 | 212 | 0.0 | 3.2 | 0.00 | 0.00 | 0.00 | 36 | 982.0 |
| 20260504231014 | 23 | 290 | 0.0 | 6.4 | 0.00 | 0.00 | 0.00 | 36 | 982.1 |
| 20260504230508 | 24 | 319 | 1.6 | 6.4 | 0.00 | 0.00 | 0.00 | 33 | 982.3 |
| 20260504230004 | 25 | 223 | 3.2 | 3.2 | 0.00 | 0.00 | 0.00 | 34 | 982.4 |
| 20260504225600 | 25 | 89 | 3.2 | 4.8 | 0.00 | 0.00 | 0.00 | 33 | 982.2 |
| 20260504225055 | 25 | 225 | 0.0 | 3.2 | 0.00 | 0.00 | 0.00 | 31 | 982.2 |
| 20260504224550 | 25 | 138 | 1.6 | 3.2 | 0.00 | 0.00 | 0.00 | 31 | 982.1 |
| 20260504224045 | 26 | 27 | 3.2 | 6.4 | 0.00 | 0.00 | 0.00 | 31 | 982.3 |
| 20260504223541 | 26 | 127 | 3.2 | 8.0 | 0.00 | 0.00 | 0.00 | 33 | 982.4 |
| 20260504223036 | 26 | 249 | 1.6 | 14.5 | 0.00 | 0.00 | 0.00 | 32 | 982.3 |
| 20260504222530 | 26 | 123 | 0.0 | 6.4 | 0.00 | 0.00 | 0.00 | 31 | 982.3 |
| 20260504222026 | 26 | 253 | 3.2 | 4.8 | 0.00 | 0.00 | 0.00 | 33 | 982.4 |
| 20260504221521 | 25 | 82 | 3.2 | 6.4 | 0.00 | 0.00 | 0.00 | 34 | 982.2 |
| 20260504221016 | 26 | 301 | 3.2 | 6.4 | 0.00 | 0.00 | 0.00 | 34 | 982.2 |
| 20260504220511 | 25 | 197 | 0.0 | 3.2 | 0.00 | 0.00 | 0.00 | 36 | 982.3 |
| 20260504220005 | 25 | 245 | 0.0 | 3.2 | 0.00 | 0.00 | 0.00 | 36 | 982.4 |
| 20260504215101 | 25 | 259 | 3.2 | 3.2 | 0.00 | 0.00 | 0.00 | 33 | 982.1 |
| 20260504214551 | 25 | 318 | 4.8 | 4.8 | 0.00 | 0.00 | 0.00 | 31 | 982.3 |
| 20260504214051 | 25 | 60 | 1.6 | 6.4 | 0.00 | 0.00 | 0.00 | 32 | 982.1 |
| 20260504213542 | 25 | 204 | 0.0 | 3.2 | 0.00 | 0.00 | 0.00 | 34 | 982.1 |
| 20260504213041 | 24 | 283 | 0.0 | 3.2 | 0.00 | 0.00 | 0.00 | 36 | 982.2 |
| 20260504212532 | 25 | 147 | 3.2 | 4.8 | 0.00 | 0.00 | 0.00 | 36 | 982.2 |
| 20260504212032 | 25 | 154 | 0.0 | 3.2 | 0.00 | 0.00 | 0.00 | 35 | 982.2 |
| 20260504211527 | 26 | 89 | 0.0 | 6.4 | 0.00 | 0.00 | 0.00 | 30 | 982.2 |
| 20260504211016 | 26 | 318 | 4.8 | 8.0 | 0.00 | 0.00 | 0.00 | 28 | 982.2 |
| 20260504210512 | 26 | 275 | 3.2 | 3.2 | 0.00 | 0.00 | 0.00 | 31 | 982.1 |
| 20260504210006 | 25 | 232 | 0.0 | 3.2 | 0.00 | 0.00 | 0.00 | 33 | 982.3 |
| 20260504205501 | 25 | 139 | 3.2 | 8.0 | 0.00 | 0.00 | 0.00 | 34 | 982.4 |
| 20260504205058 | 25 | 336 | 0.0 | 4.8 | 0.00 | 0.00 | 0.00 | 32 | 982.4 |
| 20260504204552 | 25 | 232 | 3.2 | 6.4 | 0.00 | 0.00 | 0.00 | 32 | 982.6 |
| 20260504204048 | 25 | 81 | 3.2 | 9.7 | 0.00 | 0.00 | 0.00 | 30 | 982.6 |
| 20260504203542 | 26 | 258 | 4.8 | 9.7 | 0.00 | 0.00 | 0.00 | 30 | 982.5 |
| 20260504203037 | 26 | 139 | 1.6 | 6.4 | 0.00 | 0.00 | 0.00 | 29 | 982.6 |
| 20260504202532 | 26 | 289 | 4.8 | 6.4 | 0.00 | 0.00 | 0.00 | 31 | 982.7 |
| 20260504202032 | 25 | 300 | 1.6 | 6.4 | 0.00 | 0.00 | 0.00 | 28 | 982.5 |
| 20260504201527 | 25 | 117 | 3.2 | 6.4 | 0.00 | 0.00 | 0.00 | 28 | 983.0 |
| 20260504201017 | 25 | 265 | 0.0 | 11.3 | 0.00 | 0.00 | 0.00 | 27 | 982.8 |
| 20260504200517 | 26 | 289 | 16.1 | 16.1 | 0.00 | 0.00 | 0.00 | 29 | 982.8 |
| 20260504200012 | 25 | 259 | 3.2 | 4.8 | 0.00 | 0.00 | 0.00 | 28 | 983.1 |
| 20260504195501 | 26 | 240 | 1.6 | 8.0 | 0.00 | 0.00 | 0.00 | 30 | 983.0 |
| 20260504195057 | 25 | 232 | 4.8 | 4.8 | 0.00 | 0.00 | 0.00 | 29 | 982.8 |
| 20260504194553 | 25 | 94 | 8.0 | 9.7 | 0.00 | 0.00 | 0.00 | 30 | 983.1 |
| 20260504194048 | 26 | 95 | 3.2 | 8.0 | 0.00 | 0.00 | 0.00 | 29 | 983.1 |
| 20260504193544 | 27 | 283 | 4.8 | 8.0 | 0.00 | 0.00 | 0.00 | 30 | 983.2 |
| 20260504193044 | 27 | 180 | 3.2 | 6.4 | 0.00 | 0.00 | 0.00 | 29 | 983.3 |
| 20260504192533 | 26 | 227 | 3.2 | 8.0 | 0.00 | 0.00 | 0.00 | 32 | 983.4 |
| 20260504192033 | 26 | 331 | 4.8 | 6.4 | 0.00 | 0.00 | 0.00 | 31 | 983.3 |
| 20260504191523 | 26 | 95 | 0.0 | 8.0 | 0.00 | 0.00 | 0.00 | 33 | 983.6 |
| 20260504191018 | 26 | 349 | 3.2 | 4.8 | 0.00 | 0.00 | 0.00 | 31 | 983.6 |
| 20260504190518 | 26 | 146 | 3.2 | 6.4 | 0.00 | 0.00 | 0.00 | 31 | 983.8 |
| 20260504190008 | 25 | 101 | 3.2 | 6.4 | 0.00 | 0.00 | 0.00 | 31 | 983.6 |
| 20260504185503 | 25 | 229 | 6.4 | 6.4 | 0.00 | 0.00 | 0.00 | 29 | 983.7 |
| 20260504185059 | 24 | 124 | 0.0 | 6.4 | 0.00 | 0.00 | 0.00 | 31 | 983.9 |
| 20260504184555 | 25 | 85 | 6.4 | 8.0 | 0.00 | 0.00 | 0.00 | 31 | 984.0 |
| 20260504184049 | 25 | 328 | 4.8 | 12.9 | 0.00 | 0.00 | 0.00 | 31 | 983.9 |
| 20260504183545 | 25 | 304 | 4.8 | 6.4 | 0.00 | 0.00 | 0.00 | 32 | 984.0 |
| 20260504183039 | 25 | 252 | 6.4 | 6.4 | 0.00 | 0.00 | 0.00 | 30 | 984.2 |
| 20260504182534 | 25 | 264 | 1.6 | 4.8 | 0.00 | 0.00 | 0.00 | 30 | 984.3 |
| 20260504182030 | 24 | 222 | 3.2 | 6.4 | 0.00 | 0.00 | 0.00 | 33 | 984.2 |
| 20260504181524 | 24 | 103 | 6.4 | 8.0 | 0.00 | 0.00 | 0.00 | 33 | 984.3 |
| 20260504181019 | 25 | 66 | 0.0 | 4.8 | 0.00 | 0.00 | 0.00 | 30 | 984.6 |
| 20260504180515 | 25 | 168 | 3.2 | 6.4 | 0.00 | 0.00 | 0.00 | 30 | 984.4 |
| 20260504180014 | 24 | 319 | 3.2 | 4.8 | 0.00 | 0.00 | 0.00 | 34 | 984.5 |
| 20260504175510 | 25 | 313 | 6.4 | 9.7 | 0.00 | 0.00 | 0.00 | 31 | 984.6 |
| 20260504175100 | 24 | 221 | 3.2 | 8.0 | 0.00 | 0.00 | 0.00 | 32 | 984.6 |
| 20260504174555 | 24 | 297 | 3.2 | 8.0 | 0.00 | 0.00 | 0.00 | 35 | 984.7 |
| 20260504174055 | 23 | 75 | 3.2 | 6.4 | 0.00 | 0.00 | 0.00 | 36 | 984.5 |
| 20260504173551 | 23 | 272 | 3.2 | 11.3 | 0.00 | 0.00 | 0.00 | 34 | 984.9 |
| 20260504173041 | 23 | 211 | 6.4 | 9.7 | 0.00 | 0.00 | 0.00 | 33 | 985.0 |
| 20260504172540 | 24 | 12 | 1.6 | 9.7 | 0.00 | 0.00 | 0.00 | 34 | 985.0 |
| 20260504172030 | 23 | 122 | 4.8 | 6.4 | 0.00 | 0.00 | 0.00 | 32 | 984.9 |
| 20260504171526 | 23 | 333 | 4.8 | 6.4 | 0.00 | 0.00 | 0.00 | 37 | 984.9 |
| 20260504171021 | 23 | 195 | 4.8 | 8.0 | 0.00 | 0.00 | 0.00 | 34 | 985.1 |
| 20260504170515 | 23 | 116 | 3.2 | 11.3 | 0.00 | 0.00 | 0.00 | 34 | 985.1 |
| 20260504151021 | 20 | 285 | 3.2 | 9.7 | 0.00 | 0.00 | 0.00 | 43 | 986.2 |
| 20260504150521 | 20 | 223 | 1.6 | 8.0 | 0.00 | 0.00 | 0.00 | 44 | 986.2 |
| 20260504141022 | 18 | 298 | 4.8 | 8.0 | 0.00 | 0.00 | 0.00 | 46 | 986.7 |
| 20260504140518 | 18 | 215 | 4.8 | 6.4 | 0.00 | 0.00 | 0.00 | 47 | 986.5 |
| 20260504130519 | 16 | 179 | 0.0 | 1.6 | 0.00 | 0.00 | 0.00 | 63 | 986.6 |
| 20260504110521 | 6 | 94 | 1.6 | 3.2 | 0.00 | 0.00 | 0.00 | 94 | 985.8 |
| 20260504100527 | 7 | 49 | 0.0 | 1.6 | 0.00 | 0.00 | 0.00 | 91 | 985.7 |
| 20260504081533 | 7 | 76 | 0.0 | 1.6 | 0.00 | 0.00 | 0.00 | 87 | 985.9 |
| 20260504081028 | 7 | 69 | 0.0 | 1.6 | 0.00 | 0.00 | 0.00 | 86 | 985.8 |
| 20260504080523 | 7 | 63 | 0.0 | 1.6 | 0.00 | 0.00 | 0.00 | 86 | 985.7 |
| 20260504050526 | 10 | 91 | 0.0 | 1.6 | 0.00 | 0.00 | 0.00 | 72 | 986.4 |
| 20260504050021 | 10 | 119 | 0.0 | 1.6 | 0.00 | 0.00 | 0.00 | 71 | 986.4 |
| 20260504045516 | 10 | 130 | 0.0 | 1.6 | 0.00 | 0.00 | 0.00 | 70 | 986.6 |
| 20260504045011 | 10 | 110 | 0.0 | 1.6 | 0.00 | 0.00 | 0.00 | 71 | 986.7 |
| 20260504044511 | 11 | 119 | 0.0 | 1.6 | 0.00 | 0.00 | 0.00 | 72 | 986.5 |
| 20260504044000 | 11 | 339 | 0.0 | 0.0 | 0.00 | 0.00 | 0.00 | 71 | 986.4 |
| 20260504043602 | 11 | 303 | 0.0 | 1.6 | 0.00 | 0.00 | 0.00 | 71 | 986.5 |
| 20260504043052 | 11 | 237 | 0.0 | 0.0 | 0.00 | 0.00 | 0.00 | 71 | 986.6 |
| 20260504042553 | 11 | 306 | 0.0 | 1.6 | 0.00 | 0.00 | 0.00 | 71 | 986.6 |
| 20260504042042 | 11 | 66 | 0.0 | 0.0 | 0.00 | 0.00 | 0.00 | 70 | 986.4 |
| 20260504041537 | 11 | 103 | 0.0 | 1.6 | 0.00 | 0.00 | 0.00 | 70 | 986.5 |
| 20260504041032 | 11 | 315 | 0.0 | 0.0 | 0.00 | 0.00 | 0.00 | 67 | 986.4 |
| 20260504040533 | 11 | 296 | 0.0 | 0.0 | 0.00 | 0.00 | 0.00 | 68 | 986.5 |
| 20260504040022 | 11 | 291 | 0.0 | 1.6 | 0.00 | 0.00 | 0.00 | 66 | 986.4 |
| 20260504035517 | 11 | 300 | 1.6 | 1.6 | 0.00 | 0.00 | 0.00 | 66 | 986.5 |
| 20260504035011 | 11 | 301 | 1.6 | 1.6 | 0.00 | 0.00 | 0.00 | 66 | 986.3 |
| 20260504034507 | 12 | 320 | 0.0 | 1.6 | 0.00 | 0.00 | 0.00 | 67 | 986.5 |
| 20260504034002 | 12 | 309 | 0.0 | 1.6 | 0.00 | 0.00 | 0.00 | 65 | 986.5 |
| 20260504033558 | 12 | 256 | 0.0 | 1.6 | 0.00 | 0.00 | 0.00 | 65 | 986.5 |
| 20260504033058 | 12 | 293 | 0.0 | 3.2 | 0.00 | 0.00 | 0.00 | 65 | 986.7 |
| 20260504032548 | 12 | 53 | 0.0 | 1.6 | 0.00 | 0.00 | 0.00 | 64 | 986.6 |
| 20260504032043 | 12 | 232 | 0.0 | 3.2 | 0.00 | 0.00 | 0.00 | 64 | 986.6 |
| 20260504031538 | 12 | 343 | 0.0 | 1.6 | 0.00 | 0.00 | 0.00 | 65 | 986.5 |
| 20260504031033 | 12 | 291 | 3.2 | 3.2 | 0.00 | 0.00 | 0.00 | 65 | 986.8 |
| 20260504030527 | 12 | 299 | 0.0 | 1.6 | 0.00 | 0.00 | 0.00 | 64 | 986.4 |
| 20260504030023 | 12 | 299 | 0.0 | 1.6 | 0.00 | 0.00 | 0.00 | 61 | 986.5 |